TimeCST,TemperatureF,Dew PointF,Humidity,Sea Level PressureIn,VisibilityMPH,Wind Direction,Wind SpeedMPH,Gust SpeedMPH,PrecipitationIn,Events,Conditions,WindDirDegrees,DateUTC
12:15 AM,32.0,31.6,99,30.17,4.0,NNE,9.2,-,0.03,Snow,Light Snow,30,2013-12-06 06:15:00
12:35 AM,32.0,30.9,96,30.14,7.0,NNE,13.8,-,0.03,,Overcast,20,2013-12-06 06:35:00
12:55 AM,32.0,31.1,96,30.23,7.0,North,10.4,-,0.03,,Overcast,360,2013-12-06 06:55:00
5:35 AM,30.9,30.2,97,30.19,10.0,North,9.2,-,N/A,,Overcast,10,2013-12-06 11:35:00
5:55 AM,30.7,30.0,97,30.21,10.0,North,9.2,-,N/A,,Overcast,360,2013-12-06 11:55:00
6:15 AM,30.2,29.1,96,30.19,10.0,NNE,11.5,-,N/A,,Overcast,20,2013-12-06 12:15:00
6:35 AM,29.8,28.9,96,30.18,10.0,NNE,9.2,-,N/A,,Overcast,20,2013-12-06 12:35:00
6:55 AM,30.2,29.3,96,30.21,10.0,NNE,10.4,-,N/A,,Overcast,20,2013-12-06 12:55:00
7:15 AM,29.7,28.8,96,30.22,10.0,North,10.4,-,N/A,,Overcast,10,2013-12-06 13:15:00
7:35 AM,29.3,28.4,96,30.23,7.0,North,9.2,-,N/A,,Overcast,10,2013-12-06 13:35:00
7:55 AM,29.7,28.8,96,30.23,7.0,North,10.4,-,N/A,,Overcast,10,2013-12-06 13:55:00
8:15 AM,30.0,29.3,97,30.23,4.0,North,11.5,-,N/A,Snow,Light Snow,10,2013-12-06 14:15:00
8:35 AM,30.2,29.8,99,30.23,2.0,NNE,6.9,-,0.01,Snow,Light Snow,20,2013-12-06 14:35:00
8:55 AM,30.9,30.4,98,30.22,1.8,NNE,9.2,-,0.04,Snow,Light Snow,20,2013-12-06 14:55:00
9:15 AM,31.1,30.6,98,30.23,3.0,NNE,9.2,-,0.01,Snow,Light Snow,20,2013-12-06 15:15:00
9:35 AM,31.1,30.6,98,30.23,5.0,North,12.7,-,0.02,Snow,Light Snow,10,2013-12-06 15:35:00
9:55 AM,31.1,30.7,99,30.23,3.0,NNE,9.2,-,0.03,Snow,Light Snow,20,2013-12-06 15:55:00
10:15 AM,31.1,30.6,98,30.24,2.0,North,8.1,-,0.01,Snow,Light Snow,360,2013-12-06 16:15:00
10:35 AM,30.9,30.2,97,30.23,2.5,North,10.4,-,0.03,Snow,Light Snow,10,2013-12-06 16:35:00
10:55 AM,30.6,30.0,98,30.21,3.0,North,11.5,-,0.04,Snow,Light Snow,10,2013-12-06 16:55:00
11:15 AM,30.2,29.7,98,30.20,3.0,NNE,10.4,-,0.01,Snow,Light Snow,20,2013-12-06 17:15:00
11:35 AM,30.2,29.3,96,30.21,3.0,NNE,9.2,-,0.03,Snow,Light Snow,20,2013-12-06 17:35:00
11:55 AM,30.4,29.7,97,30.21,2.5,North,8.1,-,0.04,Snow,Light Snow,10,2013-12-06 17:55:00
12:15 PM,29.8,29.3,98,30.21,1.5,North,11.5,-,0.02,Snow,Light Snow,360,2013-12-06 18:15:00
12:35 PM,28.6,27.7,96,30.21,1.8,North,10.4,-,0.04,Snow,Light Snow,10,2013-12-06 18:35:00
12:55 PM,28.0,27.3,97,30.21,1.8,North,9.2,-,0.07,Snow,Light Snow,360,2013-12-06 18:55:00
1:15 PM,27.9,26.8,96,30.22,4.0,North,9.2,-,0.01,Snow,Light Snow,10,2013-12-06 19:15:00
1:35 PM,27.3,26.6,97,30.21,1.5,NNE,9.2,-,0.02,Snow,Light Snow,20,2013-12-06 19:35:00
1:55 PM,27.3,26.6,97,30.22,1.0,North,6.9,-,0.03,Snow,Light Snow,10,2013-12-06 19:55:00
2:15 PM,27.5,26.6,96,30.22,4.0,North,8.1,-,N/A,Snow,Light Snow,10,2013-12-06 20:15:00
2:35 PM,27.5,26.6,96,30.22,5.0,NNE,5.8,-,N/A,Snow,Light Snow,20,2013-12-06 20:35:00
2:55 PM,27.5,26.6,96,30.24,5.0,North,6.9,-,0.01,Snow,Light Snow,360,2013-12-06 20:55:00
3:15 PM,27.3,26.2,96,30.24,1.5,North,9.2,-,N/A,Snow,Light Snow,10,2013-12-06 21:15:00
3:35 PM,27.0,26.2,97,30.29,1.0,North,8.1,-,N/A,Snow,Light Snow,350,2013-12-06 21:35:00
3:55 PM,27.1,25.9,95,30.30,4.0,North,8.1,-,0.01,Snow,Light Snow,360,2013-12-06 21:55:00
4:15 PM,27.0,25.7,95,30.31,2.0,North,8.1,-,N/A,Snow,Light Snow,360,2013-12-06 22:15:00
4:35 PM,26.4,25.7,97,30.28,1.5,North,6.9,-,N/A,Snow,Light Snow,10,2013-12-06 22:35:00
4:55 PM,26.4,25.5,96,30.31,7.0,North,6.9,-,0.01,Snow,Light Snow,360,2013-12-06 22:55:00
5:55 PM,26.6,25.3,95,30.33,10.0,North,6.9,-,N/A,,Overcast,10,2013-12-06 23:55:00
6:15 PM,26.6,25.3,95,30.33,10.0,North,8.1,-,N/A,,Overcast,360,2013-12-07 00:15:00
6:35 PM,26.6,25.3,95,30.34,10.0,North,11.5,-,N/A,,Overcast,360,2013-12-07 00:35:00
6:55 PM,26.6,25.3,95,30.36,7.0,North,10.4,-,N/A,,Overcast,360,2013-12-07 00:55:00
7:15 PM,26.6,25.5,96,30.37,2.0,North,8.1,-,N/A,Snow,Light Snow,10,2013-12-07 01:15:00
7:35 PM,26.6,25.7,96,30.37,3.0,North,8.1,-,N/A,Snow,Light Snow,10,2013-12-07 01:35:00
7:55 PM,26.8,25.7,96,30.38,10.0,North,6.9,-,N/A,,Overcast,10,2013-12-07 01:55:00
8:15 PM,27.1,25.9,95,30.39,7.0,North,6.9,-,N/A,,Overcast,360,2013-12-07 02:15:00
8:35 PM,27.0,25.9,96,30.40,7.0,North,8.1,-,N/A,,Overcast,360,2013-12-07 02:35:00
8:55 PM,27.1,25.7,94,30.41,10.0,North,6.9,-,N/A,,Overcast,360,2013-12-07 02:55:00
9:15 PM,27.0,25.5,94,30.41,10.0,North,8.1,-,N/A,,Overcast,360,2013-12-07 03:15:00
9:35 PM,26.6,25.2,94,30.42,10.0,North,8.1,-,N/A,,Overcast,360,2013-12-07 03:35:00
9:55 PM,26.4,24.8,94,30.43,10.0,North,9.2,-,N/A,,Overcast,360,2013-12-07 03:55:00
10:15 PM,26.2,24.8,94,30.43,10.0,North,8.1,-,N/A,,Overcast,10,2013-12-07 04:15:00
10:35 PM,25.7,24.3,94,30.44,10.0,North,8.1,-,N/A,,Overcast,10,2013-12-07 04:35:00
10:55 PM,25.7,23.9,93,30.44,10.0,North,6.9,-,N/A,,Overcast,360,2013-12-07 04:55:00
11:15 PM,25.5,23.9,94,30.45,10.0,North,8.1,-,N/A,,Overcast,360,2013-12-07 05:15:00
11:35 PM,25.5,23.5,92,30.46,10.0,North,6.9,-,N/A,,Overcast,350,2013-12-07 05:35:00
11:55 PM,25.2,22.5,89,30.47,10.0,North,10.4,-,N/A,,Overcast,10,2013-12-07 05:55:00